TimeAST,TemperatureF,Dew PointF,Humidity,Sea Level PressureIn,VisibilityMPH,Wind Direction,Wind SpeedMPH,Gust SpeedMPH,PrecipitationIn,Events,Conditions,WindDirDegrees,DateUTC
12:00 AM,77.0,68.0,74,29.98,6.2,East,6.9,-,N/A,,Partly Cloudy,100,2013-03-20 04:00:00
1:00 AM,77.0,68.0,74,29.95,6.2,ESE,9.2,-,N/A,,Scattered Clouds,110,2013-03-20 05:00:00
2:00 AM,76,69,72,29.95,28,East,5.8,,,,Partly Cloudy,100,2013-03-20 06:00:00
2:00 AM,77.0,68.0,74,29.95,6.2,East,5.8,-,N/A,,Scattered Clouds,100,2013-03-20 06:00:00
3:00 AM,77.0,68.0,74,29.92,6.2,ESE,6.9,-,N/A,,Partly Cloudy,110,2013-03-20 07:00:00
4:00 AM,77.0,68.0,74,29.92,6.2,ESE,9.2,-,N/A,,Partly Cloudy,120,2013-03-20 08:00:00
5:00 AM,77,69,68,29.93,28,ESE,10.4,,,,Scattered Clouds,110,2013-03-20 09:00:00
5:00 AM,77.0,68.0,74,29.92,6.2,ESE,10.4,-,N/A,,Partly Cloudy,110,2013-03-20 09:00:00
6:00 AM,77.0,68.0,74,29.92,6.2,ESE,6.9,-,N/A,,Partly Cloudy,110,2013-03-20 10:00:00
7:00 AM,77.0,68.0,74,29.95,6.2,SE,10.4,-,N/A,,Partly Cloudy,130,2013-03-20 11:00:00
8:00 AM,79,69,64,29.98,28,SE,9.2,,,,Partly Cloudy,140,2013-03-20 12:00:00
8:00 AM,78.8,69.8,74,29.98,6.2,ESE,9.2,-,N/A,,Scattered Clouds,120,2013-03-20 12:00:00
9:00 AM,78.8,69.8,74,29.98,6.2,ESE,9.2,-,N/A,,Scattered Clouds,120,2013-03-20 13:00:00
10:00 AM,82.4,69.8,66,29.98,6.2,SE,10.4,-,N/A,,Scattered Clouds,130,2013-03-20 14:00:00
11:00 AM,81,70,61,30.01,28,SE,13.8,,,,Partly Cloudy,130,2013-03-20 15:00:00
11:00 AM,80.6,69.8,70,29.98,6.2,SE,13.8,-,N/A,,Scattered Clouds,130,2013-03-20 15:00:00
12:00 PM,80.6,69.8,70,29.98,6.2,SE,11.5,-,N/A,,Mostly Cloudy,130,2013-03-20 16:00:00
1:00 PM,80.6,68.0,65,29.95,6.2,ESE,16.1,-,N/A,,Mostly Cloudy,110,2013-03-20 17:00:00
2:00 PM,81,69,59,29.94,28,SSE,15.0,,,,Partly Cloudy,150,2013-03-20 18:00:00
2:00 PM,80.6,69.8,70,29.92,6.2,SSE,15.0,-,N/A,,Partly Cloudy,150,2013-03-20 18:00:00
3:00 PM,80.6,68.0,65,29.89,6.2,SE,13.8,-,N/A,,Partly Cloudy,130,2013-03-20 19:00:00
4:00 PM,80.6,68.0,65,29.89,6.2,SE,12.7,-,N/A,,Partly Cloudy,130,2013-03-20 20:00:00
5:00 PM,81,67,53,29.92,28,SE,10.4,,,,Scattered Clouds,140,2013-03-20 21:00:00
5:00 PM,80.6,66.2,61,29.92,6.2,SE,10.4,-,N/A,,Partly Cloudy,140,2013-03-20 21:00:00
6:00 PM,78.8,69.8,74,29.92,6.2,ESE,10.4,-,N/A,,Scattered Clouds,110,2013-03-20 22:00:00
7:00 PM,77.0,69.8,78,29.95,6.2,ESE,9.2,-,N/A,,Scattered Clouds,120,2013-03-20 23:00:00
8:00 PM,77,69,68,29.96,28,ESE,8.1,,,,Partly Cloudy,120,2013-03-21 00:00:00
8:00 PM,77.0,68.0,74,29.95,6.2,ESE,8.1,-,N/A,,Scattered Clouds,120,2013-03-21 00:00:00
9:00 PM,77.0,68.0,74,29.95,6.2,East,10.4,-,N/A,,Scattered Clouds,100,2013-03-21 01:00:00
10:00 PM,77.0,68.0,74,29.95,6.2,East,9.2,-,N/A,,Partly Cloudy,100,2013-03-21 02:00:00
11:00 PM,77,66,61,29.97,28,SE,6.9,,,,Scattered Clouds,130,2013-03-21 03:00:00
11:00 PM,77.0,66.2,69,29.95,6.2,ESE,5.8,-,N/A,,Partly Cloudy,110,2013-03-21 03:00:00